Time,TemperatureF,DewpointF,PressureIn,WindDirection,WindDirectionDegrees,WindSpeedMPH,WindSpeedGustMPH,Humidity,HourlyPrecipIn,Conditions,Clouds,dailyrainin,SolarRadiationWatts/m^2,SoftwareType,DateUTC
2013-03-17 00:22:00,29.0,20.0,-100.00,NW,318,4.0,9.0,70,0.00,,,0.00,0.000000,,2013-03-17 06:22:00,
2013-03-17 00:32:00,29.0,20.0,-100.00,NW,318,4.0,9.0,70,0.00,,,0.00,0.000000,,2013-03-17 06:32:00,
2013-03-17 00:42:00,29.0,20.0,-100.00,NW,318,4.0,9.0,70,0.00,,,0.00,0.000000,,2013-03-17 06:42:00,
2013-03-17 00:52:00,29.0,20.0,-100.00,NW,318,4.0,9.0,70,0.00,,,0.00,0.000000,,2013-03-17 06:52:00,
2013-03-17 01:22:00,27.0,19.0,-100.00,WSW,255,3.0,6.0,71,0.00,,,0.00,0.000000,,2013-03-17 07:22:00,
2013-03-17 01:32:00,27.0,19.0,-100.00,WSW,255,3.0,6.0,71,0.00,,,0.00,0.000000,,2013-03-17 07:32:00,
2013-03-17 01:42:00,27.0,19.0,-100.00,WSW,255,3.0,6.0,71,0.00,,,0.00,0.000000,,2013-03-17 07:42:00,
2013-03-17 01:52:00,27.0,19.0,-100.00,WSW,255,3.0,6.0,71,0.00,,,0.00,0.000000,,2013-03-17 07:52:00,
2013-03-17 02:22:00,27.0,17.0,-100.00,WSW,257,6.0,8.0,65,0.00,,,0.00,0.000000,,2013-03-17 08:22:00,
2013-03-17 02:32:00,27.0,17.0,-100.00,WSW,257,6.0,8.0,65,0.00,,,0.00,0.000000,,2013-03-17 08:32:00,
2013-03-17 02:42:00,27.0,17.0,-100.00,WSW,257,6.0,8.0,65,0.00,,,0.00,0.000000,,2013-03-17 08:42:00,
2013-03-17 02:52:00,27.0,17.0,-100.00,WSW,257,6.0,8.0,65,0.00,,,0.00,0.000000,,2013-03-17 08:52:00,
2013-03-17 03:22:00,30.0,15.0,-100.00,West,272,7.0,13.0,52,0.00,,,0.00,0.000000,,2013-03-17 09:22:00,
2013-03-17 03:32:00,30.0,15.0,-100.00,West,272,7.0,13.0,52,0.00,,,0.00,0.000000,,2013-03-17 09:32:00,
2013-03-17 03:43:00,30.0,15.0,-100.00,West,272,7.0,13.0,52,0.00,,,0.00,0.000000,,2013-03-17 09:43:00,
2013-03-17 03:53:00,30.0,15.0,-100.00,West,272,7.0,13.0,52,0.00,,,0.00,0.000000,,2013-03-17 09:53:00,
2013-03-17 04:23:00,27.0,16.0,-100.00,SW,226,4.0,8.0,63,0.00,,,0.00,0.000000,,2013-03-17 10:23:00,
2013-03-17 04:33:00,27.0,16.0,-100.00,SW,226,4.0,8.0,63,0.00,,,0.00,0.000000,,2013-03-17 10:33:00,
2013-03-17 04:42:00,27.0,16.0,-100.00,SW,226,4.0,8.0,63,0.00,,,0.00,0.000000,,2013-03-17 10:42:00,
2013-03-17 04:52:00,27.0,16.0,-100.00,SW,226,4.0,8.0,63,0.00,,,0.00,0.000000,,2013-03-17 10:52:00,
2013-03-17 05:22:00,27.0,16.0,-100.00,SW,228,6.0,11.0,64,0.00,,,0.00,0.000000,,2013-03-17 11:22:00,
2013-03-17 05:32:00,27.0,16.0,-100.00,SW,228,6.0,11.0,64,0.00,,,0.00,0.000000,,2013-03-17 11:32:00,
2013-03-17 05:42:00,27.0,16.0,-100.00,SW,228,6.0,11.0,64,0.00,,,0.00,0.000000,,2013-03-17 11:42:00,
2013-03-17 05:52:00,27.0,16.0,-100.00,SW,228,6.0,11.0,64,0.00,,,0.00,0.000000,,2013-03-17 11:52:00,
2013-03-17 06:22:00,26.0,17.0,-100.00,South,191,3.0,11.0,67,0.00,,,0.00,0.000000,,2013-03-17 12:22:00,
2013-03-17 06:33:00,26.0,17.0,-100.00,South,191,3.0,11.0,67,0.00,,,0.00,0.000000,,2013-03-17 12:33:00,
2013-03-17 06:43:00,26.0,17.0,-100.00,South,191,3.0,11.0,67,0.00,,,0.00,0.000000,,2013-03-17 12:43:00,
2013-03-17 06:52:00,26.0,17.0,-100.00,South,191,3.0,11.0,67,0.00,,,0.00,0.000000,,2013-03-17 12:52:00,
2013-03-17 07:22:00,26.0,15.0,-100.00,WSW,249,6.0,9.0,63,0.00,,,0.00,0.000000,,2013-03-17 13:22:00,
2013-03-17 07:32:00,26.0,15.0,-100.00,WSW,249,6.0,9.0,63,0.00,,,0.00,0.000000,,2013-03-17 13:32:00,
2013-03-17 07:42:00,26.0,15.0,-100.00,WSW,249,6.0,9.0,63,0.00,,,0.00,0.000000,,2013-03-17 13:42:00,
2013-03-17 07:52:00,26.0,15.0,-100.00,WSW,249,6.0,9.0,63,0.00,,,0.00,0.000000,,2013-03-17 13:52:00,
2013-03-17 08:22:00,31.0,14.0,-100.00,West,273,7.0,18.0,48,0.00,,,0.00,36.000000,,2013-03-17 14:22:00,
2013-03-17 08:32:00,31.0,14.0,-100.00,West,273,7.0,18.0,48,0.00,,,0.00,36.000000,,2013-03-17 14:32:00,
2013-03-17 08:42:00,31.0,14.0,-100.00,West,273,7.0,18.0,48,0.00,,,0.00,36.000000,,2013-03-17 14:42:00,
2013-03-17 08:52:00,31.0,14.0,-100.00,West,273,7.0,18.0,48,0.00,,,0.00,36.000000,,2013-03-17 14:52:00,
2013-03-17 09:23:00,33.0,17.0,-100.00,SE,142,2.0,16.0,51,0.00,,,0.00,172.000000,,2013-03-17 15:23:00,
2013-03-17 09:33:00,33.0,17.0,-100.00,SE,142,2.0,16.0,51,0.00,,,0.00,172.000000,,2013-03-17 15:33:00,
2013-03-17 09:42:00,33.0,17.0,-100.00,SE,142,2.0,16.0,51,0.00,,,0.00,172.000000,,2013-03-17 15:42:00,
2013-03-17 09:52:00,33.0,17.0,-100.00,SE,142,2.0,16.0,51,0.00,,,0.00,172.000000,,2013-03-17 15:52:00,
2013-03-17 10:23:00,30.0,24.0,-100.00,SW,221,5.0,14.0,78,0.00,,,0.00,152.000000,,2013-03-17 16:23:00,
2013-03-17 10:33:00,30.0,24.0,-100.00,SW,221,5.0,14.0,78,0.00,,,0.00,152.000000,,2013-03-17 16:33:00,
2013-03-17 10:43:00,30.0,24.0,-100.00,SW,221,5.0,14.0,78,0.00,,,0.00,152.000000,,2013-03-17 16:43:00,
2013-03-17 10:52:00,30.0,24.0,-100.00,SW,221,5.0,14.0,78,0.00,,,0.00,152.000000,,2013-03-17 16:52:00,
2013-03-17 11:22:00,29.0,24.0,-100.00,NW,317,4.0,10.0,82,0.00,,,0.00,190.000000,,2013-03-17 17:22:00,
2013-03-17 11:33:00,29.0,24.0,-100.00,NW,317,4.0,10.0,82,0.00,,,0.00,190.000000,,2013-03-17 17:33:00,
2013-03-17 11:42:00,29.0,24.0,-100.00,NW,317,4.0,10.0,82,0.00,,,0.00,190.000000,,2013-03-17 17:42:00,
2013-03-17 11:52:00,29.0,24.0,-100.00,NW,317,4.0,10.0,82,0.00,,,0.00,190.000000,,2013-03-17 17:52:00,
2013-03-17 12:22:00,30.0,22.0,-100.00,WNW,285,8.0,18.0,73,0.01,,,0.01,386.000000,,2013-03-17 18:22:00,
2013-03-17 12:32:00,30.0,22.0,-100.00,WNW,285,8.0,18.0,73,0.01,,,0.01,386.000000,,2013-03-17 18:32:00,
2013-03-17 12:42:00,30.0,22.0,-100.00,WNW,285,8.0,18.0,73,0.01,,,0.01,386.000000,,2013-03-17 18:42:00,
2013-03-17 12:52:00,30.0,22.0,-100.00,WNW,285,8.0,18.0,73,0.01,,,0.01,386.000000,,2013-03-17 18:52:00,
2013-03-17 13:22:00,37.0,18.0,-100.00,WNW,285,9.0,17.0,46,0.00,,,0.01,631.000000,,2013-03-17 19:22:00,
2013-03-17 13:33:00,37.0,18.0,-100.00,WNW,285,9.0,17.0,46,0.00,,,0.01,631.000000,,2013-03-17 19:33:00,
2013-03-17 13:42:00,37.0,18.0,-100.00,WNW,285,9.0,17.0,46,0.00,,,0.01,631.000000,,2013-03-17 19:42:00,
2013-03-17 13:53:00,37.0,18.0,-100.00,WNW,285,9.0,17.0,46,0.00,,,0.01,631.000000,,2013-03-17 19:53:00,
2013-03-17 14:22:00,34.0,20.0,-100.00,SW,233,10.0,22.0,57,0.00,,,0.01,388.000000,,2013-03-17 20:22:00,
2013-03-17 14:33:00,34.0,20.0,-100.00,SW,233,10.0,22.0,57,0.00,,,0.01,388.000000,,2013-03-17 20:33:00,
2013-03-17 14:42:00,34.0,20.0,-100.00,SW,233,10.0,22.0,57,0.00,,,0.01,388.000000,,2013-03-17 20:42:00,
2013-03-17 14:52:00,34.0,20.0,-100.00,SW,233,10.0,22.0,57,0.00,,,0.01,388.000000,,2013-03-17 20:52:00,
2013-03-17 15:22:00,36.0,19.0,-100.00,West,261,12.0,28.0,49,0.00,,,0.01,572.000000,,2013-03-17 21:22:00,
2013-03-17 15:33:00,36.0,19.0,-100.00,West,261,12.0,28.0,49,0.00,,,0.01,572.000000,,2013-03-17 21:33:00,
2013-03-17 15:43:00,36.0,19.0,-100.00,West,261,12.0,28.0,49,0.00,,,0.01,572.000000,,2013-03-17 21:43:00,
2013-03-17 15:52:00,36.0,19.0,-100.00,West,261,12.0,28.0,49,0.00,,,0.01,572.000000,,2013-03-17 21:52:00,
2013-03-17 16:23:00,31.0,18.0,-100.00,SW,232,8.0,20.0,59,0.00,,,0.01,352.000000,,2013-03-17 22:23:00,
2013-03-17 16:33:00,31.0,18.0,-100.00,SW,232,8.0,20.0,59,0.00,,,0.01,352.000000,,2013-03-17 22:33:00,
2013-03-17 16:42:00,31.0,18.0,-100.00,SW,232,8.0,20.0,59,0.00,,,0.01,352.000000,,2013-03-17 22:42:00,
2013-03-17 16:52:00,31.0,18.0,-100.00,SW,232,8.0,20.0,59,0.00,,,0.01,352.000000,,2013-03-17 22:52:00,
2013-03-17 17:22:00,29.0,23.0,-100.00,WSW,246,5.0,22.0,78,0.00,,,0.01,148.000000,,2013-03-17 23:22:00,
2013-03-17 17:33:00,29.0,23.0,-100.00,WSW,246,5.0,22.0,78,0.00,,,0.01,148.000000,,2013-03-17 23:33:00,
2013-03-17 17:42:00,29.0,23.0,-100.00,WSW,246,5.0,22.0,78,0.00,,,0.01,148.000000,,2013-03-17 23:42:00,
2013-03-17 17:52:00,29.0,23.0,-100.00,WSW,246,5.0,22.0,78,0.00,,,0.01,148.000000,,2013-03-17 23:52:00,
2013-03-17 18:22:00,25.0,20.0,-100.00,NW,310,10.0,21.0,81,0.00,,,0.01,26.000000,,2013-03-18 00:22:00,
2013-03-17 18:33:00,25.0,20.0,-100.00,NW,310,10.0,21.0,81,0.00,,,0.01,26.000000,,2013-03-18 00:33:00,
2013-03-17 18:42:00,25.0,20.0,-100.00,NW,310,10.0,21.0,81,0.00,,,0.01,26.000000,,2013-03-18 00:42:00,
2013-03-17 18:52:00,25.0,20.0,-100.00,NW,310,10.0,21.0,81,0.00,,,0.01,26.000000,,2013-03-18 00:52:00,
2013-03-17 19:22:00,24.0,18.0,-100.00,NW,307,10.0,21.0,78,0.00,,,0.01,17.000000,,2013-03-18 01:22:00,
2013-03-17 19:32:00,24.0,18.0,-100.00,NW,307,10.0,21.0,78,0.00,,,0.01,17.000000,,2013-03-18 01:32:00,
2013-03-17 19:42:00,24.0,18.0,-100.00,NW,307,10.0,21.0,78,0.00,,,0.01,17.000000,,2013-03-18 01:42:00,
2013-03-17 19:52:00,24.0,18.0,-100.00,NW,307,10.0,21.0,78,0.00,,,0.01,17.000000,,2013-03-18 01:52:00,
2013-03-17 20:22:00,23.0,18.0,-100.00,West,268,6.0,25.0,82,0.00,,,0.01,1.000000,,2013-03-18 02:22:00,
2013-03-17 20:32:00,23.0,18.0,-100.00,West,268,6.0,25.0,82,0.00,,,0.01,1.000000,,2013-03-18 02:32:00,
2013-03-17 20:42:00,23.0,18.0,-100.00,West,268,6.0,25.0,82,0.00,,,0.01,1.000000,,2013-03-18 02:42:00,
2013-03-17 20:52:00,23.0,18.0,-100.00,West,268,6.0,25.0,82,0.00,,,0.01,1.000000,,2013-03-18 02:52:00,
2013-03-17 21:22:00,23.0,16.0,-100.00,West,266,5.0,12.0,73,0.00,,,0.01,0.000000,,2013-03-18 03:22:00,
2013-03-17 21:33:00,23.0,16.0,-100.00,West,266,5.0,12.0,73,0.00,,,0.01,0.000000,,2013-03-18 03:33:00,
2013-03-17 21:42:00,23.0,16.0,-100.00,West,266,5.0,12.0,73,0.00,,,0.01,0.000000,,2013-03-18 03:42:00,
2013-03-17 21:53:00,23.0,16.0,-100.00,West,266,5.0,12.0,73,0.00,,,0.01,0.000000,,2013-03-18 03:53:00,
2013-03-17 22:23:00,24.0,9.0,-100.00,WNW,303,9.0,24.0,51,0.00,,,0.01,0.000000,,2013-03-18 04:23:00,
2013-03-17 22:33:00,24.0,9.0,-100.00,WNW,303,9.0,24.0,51,0.00,,,0.01,0.000000,,2013-03-18 04:33:00,
2013-03-17 22:42:00,24.0,9.0,-100.00,WNW,303,9.0,24.0,51,0.00,,,0.01,0.000000,,2013-03-18 04:42:00,
2013-03-17 22:52:00,24.0,9.0,-100.00,WNW,303,9.0,24.0,51,0.00,,,0.01,0.000000,,2013-03-18 04:52:00,
2013-03-17 23:22:00,23.0,8.0,-100.00,NW,312,9.0,22.0,52,0.00,,,0.01,0.000000,,2013-03-18 05:22:00,
2013-03-17 23:32:00,23.0,8.0,-100.00,NW,312,9.0,22.0,52,0.00,,,0.01,0.000000,,2013-03-18 05:32:00,
2013-03-17 23:43:00,23.0,8.0,-100.00,NW,312,9.0,22.0,52,0.00,,,0.01,0.000000,,2013-03-18 05:43:00,
2013-03-17 23:52:00,23.0,8.0,-100.00,NW,312,9.0,22.0,52,0.00,,,0.01,0.000000,,2013-03-18 05:52:00,